User: anonymous   Login
Location: Poughquag
(41.6090°N, 73.6820°W)
Time: 17:33:23
(UTC-05:00)
Language:

EO-79 - Orbit

View from above orbital plane
View from above orbital plane
View from above satellite
View from above satellite

Ground track
Ground track

The orbit data is extracted from the following two-line orbital elements,

1 40025U 14033R   23332.33147296  .00009197  00000-0  82181-3 0  9999
2 40025  98.0171 282.4034 0012416 106.5922 253.6663 14.96080126512669
Epoch (UTC): 28 November 2023 07:57:19
Eccentricity: 0.0012416
inclination: 98.0171°
perigee height: 570 km
apogee height: 587 km
right ascension of ascending node: 282.4034°
argument of perigee: 106.5922°
revolutions per day: 14.96080126
mean anomaly at epoch: 253.6663°
orbit number at epoch: 51266

The dashed part of the orbit path shows where the satellite is in the earth's shadow,  

DLR